Randolph AFB, TX

1:43 PM CST on February 25, 2018 (GMT -0600)
Randolph Air Force Base

Weather History for KRND - September, 2013

Change the Weather History Date:

Tuesday, September 10, 2013

  Actual Average Record
Temperature  
Mean Temperature 80 °F -  
Max Temperature 90 °F 88 °F 99 °F (2014)
Min Temperature 71 °F 69 °F 59 °F (2012)
Cooling Degree Days 15    
Growing Degree Days 30 (Base 50)    
Moisture  
Dew Point 71 °F    
Average Humidity 84    
Maximum Humidity 94    
Minimum Humidity 49    
Precipitation  
Precipitation 0.01 in - - ()
Sea Level Pressure  
Sea Level Pressure 30.02 in    
Wind  
Wind Speed 7 mph (East)    
Max Wind Speed 21 mph    
Max Gust Speed 30 mph    
Visibility 10 miles    
Events Rain , Thunderstorm    
Averages and records for this station are not official NWS values.
T = Trace of Precipitation, MM = Missing Value Source: NWS Daily Summary

Daily Weather History Graph

Daily Weather History Graph

Search for Another Location

Airport or City:

Trip Planner

Search our weather history database for the weather conditions in past years. The results will help you decide how hot, cold, wet, or windy it might be!

Date:

Astronomy

Sep. 10, 2013 Rise Set
Actual Time 7:15 AM CDT 7:44 PM CDT
Civil Twilight 6:51 AM CDT 8:08 PM CDT
Nautical Twilight 6:23 AM CDT 8:36 PM CDT
Astronomical Twilight 5:54 AM CDT 9:04 PM CDT
Moon 12:15 PM CDT (9/10) 11:15 PM CDT (9/10)
Length of Visible Light 13h 16m
Length of Day
12h 28m
Waxing Crescent, 28% of the Moon is Illuminated
Sep 10
Waxing Crescent
Sep 12
First Quarter
Sep 19
Full
Sep 26
Last Quarter
Oct 4
New

Hourly Weather History & Observations

Time (CDT) Temp. Heat Index Dew Point Humidity Pressure Visibility Wind Dir Wind Speed Gust Speed Precip Events Conditions
12:58 AM 72.0 °F - 70.0 °F 93% 29.98 in 10.0 mi ENE 3.5 mph - N/A   Scattered Clouds
1:58 AM 72.0 °F - 69.8 °F 93% 29.97 in 10.0 mi East 4.6 mph - N/A   Clear
2:23 AM 71.6 °F - 69.8 °F 94% 30.00 in 10.0 mi East 3.5 mph - N/A   Mostly Cloudy
2:33 AM 73.4 °F - 69.8 °F 88% 30.00 in 10.0 mi East 4.6 mph - N/A   Mostly Cloudy
2:58 AM 73.0 °F - 70.9 °F 93% 29.98 in 10.0 mi East 4.6 mph - N/A   Mostly Cloudy
3:03 AM 73.4 °F - 71.6 °F 94% 30.00 in 10.0 mi East 4.6 mph - N/A   Mostly Cloudy
3:08 AM 73.4 °F - 71.6 °F 94% 29.99 in 7.0 mi East 5.8 mph - N/A   Mostly Cloudy
3:13 AM 73.4 °F - 71.6 °F 94% 29.99 in 10.0 mi East 5.8 mph - N/A   Mostly Cloudy
3:18 AM 73.4 °F - 71.6 °F 94% 29.99 in 10.0 mi East 5.8 mph - N/A   Mostly Cloudy
3:28 AM 73.4 °F - 71.6 °F 94% 30.00 in 10.0 mi East 5.8 mph - N/A   Mostly Cloudy
3:38 AM 73.4 °F - 69.8 °F 88% 29.99 in 10.0 mi East 6.9 mph - N/A   Mostly Cloudy
3:48 AM 73.4 °F - 69.8 °F 88% 29.99 in 10.0 mi East 6.9 mph - N/A   Mostly Cloudy
3:58 AM 73.0 °F - 70.9 °F 93% 29.97 in 10.0 mi East 5.8 mph - 0.00 in   Drizzle
4:03 AM 73.4 °F - 71.6 °F 94% 29.99 in 10.0 mi East 6.9 mph - N/A   Mostly Cloudy
4:08 AM 73.4 °F - 69.8 °F 88% 29.99 in 10.0 mi East 6.9 mph - N/A   Scattered Clouds
4:46 AM 71.6 °F - 69.8 °F 94% 29.99 in 10.0 mi East 9.2 mph - N/A   Partly Cloudy
4:58 AM 72.3 °F - 70.5 °F 94% 29.97 in 10.0 mi East 6.9 mph - 0.00 in   Partly Cloudy
5:58 AM 72.3 °F - 70.5 °F 94% 29.97 in 10.0 mi East 8.1 mph - N/A   Partly Cloudy
6:58 AM 71.8 °F - 70.0 °F 94% 29.99 in 10.0 mi East 5.8 mph - N/A   Scattered Clouds
7:15 AM 71.6 °F - 69.8 °F 94% 30.02 in 10.0 mi East 5.8 mph - N/A   Mostly Cloudy
7:43 AM 71.6 °F - 69.8 °F 94% 30.03 in 10.0 mi East 6.9 mph - N/A   Overcast
7:53 AM 73.4 °F - 71.6 °F 94% 30.03 in 8.0 mi ENE 5.8 mph - N/A   Mostly Cloudy
7:58 AM 72.7 °F - 70.9 °F 94% 30.01 in 8.0 mi East 8.1 mph - N/A   Mostly Cloudy
8:03 AM 73.4 °F - 71.6 °F 94% 30.03 in 10.0 mi East 6.9 mph - N/A   Mostly Cloudy
8:13 AM 73.4 °F - 71.6 °F 94% 30.03 in 10.0 mi East 6.9 mph - N/A   Mostly Cloudy
8:18 AM 73.4 °F - 71.6 °F 94% 30.03 in 10.0 mi East 8.1 mph - N/A   Mostly Cloudy
8:22 AM 73.4 °F - 71.6 °F 94% 30.03 in 9.0 mi East 6.9 mph - N/A   Mostly Cloudy
8:27 AM 73.4 °F - 71.6 °F 94% 30.03 in 10.0 mi East 8.1 mph - N/A   Mostly Cloudy
8:52 AM 75.2 °F - 71.6 °F 89% 30.04 in 10.0 mi East 8.1 mph - N/A   Mostly Cloudy
8:58 AM 75.0 °F - 72.0 °F 90% 30.03 in 10.0 mi East 10.4 mph - N/A   Mostly Cloudy
9:29 AM 78.8 °F - 71.6 °F 78% 30.05 in 10.0 mi East 11.5 mph - N/A   Mostly Cloudy
9:33 AM 75.2 °F - 71.6 °F 89% 30.03 in 10.0 mi ESE 8.1 mph - N/A   Mostly Cloudy
9:34 AM 78.8 °F - 71.6 °F 78% 30.05 in 10.0 mi East 10.4 mph - N/A   Scattered Clouds
9:55 AM 80.4 °F 84.7 °F 72.5 °F 77% 30.03 in 10.0 mi ESE 6.9 mph - N/A   Scattered Clouds
10:11 AM 80.6 °F 84.6 °F 71.6 °F 74% 30.05 in 10.0 mi East 10.4 mph - N/A   Mostly Cloudy
10:13 AM 80.6 °F 84.6 °F 71.6 °F 74% 30.05 in 10.0 mi East 9.2 mph - N/A   Mostly Cloudy
10:15 AM 78.8 °F - 71.6 °F 78% 30.05 in 10.0 mi ESE 9.2 mph - N/A   Mostly Cloudy
10:22 AM 80.6 °F 84.6 °F 71.6 °F 74% 30.05 in 10.0 mi East 10.4 mph - N/A   Mostly Cloudy
10:26 AM 80.6 °F 84.6 °F 71.6 °F 74% 30.06 in 10.0 mi ESE 8.1 mph - N/A   Mostly Cloudy
10:27 AM 80.6 °F 84.6 °F 71.6 °F 74% 30.06 in 10.0 mi ESE 8.1 mph - N/A   Mostly Cloudy
10:33 AM 80.6 °F 84.6 °F 71.6 °F 74% 30.03 in 10.0 mi ESE 8.1 mph - N/A   Mostly Cloudy
10:56 AM 82.4 °F 87.2 °F 71.6 °F 70% 30.04 in 10.0 mi ESE 10.4 mph - N/A   Mostly Cloudy
11:59 AM 82.4 °F 87.2 °F 71.6 °F 70% 30.04 in 10.0 mi ESE 10.4 mph - N/A   Mostly Cloudy
12:58 PM 87.8 °F 91.8 °F 68.7 °F 53% 30.02 in 10.0 mi ESE 12.7 mph 18.4 mph N/A   Scattered Clouds
1:55 PM 89.6 °F 93.4 °F 68.0 °F 49% 30.03 in 10.0 mi WSW 10.4 mph - N/A   Mostly Cloudy
2:32 PM 84.2 °F 89.6 °F 71.6 °F 66% 30.02 in 10.0 mi SSW 12.7 mph - N/A Rain , Thunderstorm Light Rain Showers
2:41 PM 80.6 °F 84.6 °F 71.6 °F 74% 29.99 in 10.0 mi SSW 9.2 mph 19.6 mph N/A Thunderstorm Mostly Cloudy
2:56 PM 78.8 °F - 69.8 °F 74% 29.99 in 10.0 mi SSW 9.2 mph - N/A Rain Light Rain Showers
3:43 PM 82.4 °F 88.2 °F 73.4 °F 74% 29.99 in 7.0 mi South 11.5 mph 19.6 mph N/A   Mostly Cloudy
3:58 PM 83.3 °F 86.9 °F 69.3 °F 62% 29.99 in 10.0 mi South 9.2 mph - N/A   Mostly Cloudy
4:41 PM 86.0 °F 90.4 °F 69.8 °F 58% 30.02 in 10.0 mi SE 17.3 mph - N/A Thunderstorm Partly Cloudy
4:54 PM 78.8 °F - 73.4 °F 83% 30.03 in 10.0 mi ESE 20.7 mph 29.9 mph N/A Rain Light Rain Showers
4:58 PM 77.0 °F - 71.6 °F 83% 30.01 in 6.0 mi East 15.0 mph 29.9 mph 0.00 in Rain Light Rain Showers
5:03 PM 75.2 °F - 71.6 °F 89% 30.02 in 4.0 mi ESE 8.1 mph - N/A Rain Light Rain
5:08 PM 75.2 °F - 71.6 °F 89% 30.02 in 5.0 mi East 8.1 mph - N/A Rain Light Rain
5:58 PM 77.2 °F - 73.0 °F 87% 30.00 in 10.0 mi ESE 9.2 mph - 0.01 in   Clear
6:58 PM 77.5 °F - 71.8 °F 82% 30.01 in 10.0 mi ESE 10.4 mph - N/A   Scattered Clouds
7:58 PM 75.9 °F - 69.3 °F 80% 30.01 in 10.0 mi SSE 9.2 mph - N/A   Clear
8:58 PM 74.3 °F - 69.4 °F 85% 30.02 in 10.0 mi East 2.3 mph - N/A   Clear
9:58 PM 73.6 °F - 70.0 °F 88% 30.06 in 10.0 mi NE 2.3 mph - N/A   Clear
10:58 PM 73.2 °F - 69.6 °F 88% 30.07 in 10.0 mi Calm Calm - N/A   Clear
11:58 PM 72.7 °F - 69.6 °F 90% 30.05 in 10.0 mi NNE 2.3 mph - N/A   Partly Cloudy